Weather History for Marathon, FL

Change the Weather History Date:

Wednesday, October 10, 2012

  Actual Average Record
Temperature  
Mean Temperature 83 °F 82 °F  
Max Temperature 89 °F 87 °F 90 °F (1998)
Min Temperature 77 °F 77 °F 72 °F (2000)
Degree Days  
Heating Degree Days 0 0  
Month to date heating degree days 0 0  
Since 1 July heating degree days 0 0  
Cooling Degree Days 18 17  
Month to date cooling degree days 192 175  
Year to date cooling degree days 4435 4129  
Growing Degree Days 32 (Base 50)    
Moisture  
Dew Point 76 °F    
Average Humidity 80    
Maximum Humidity 97    
Minimum Humidity 63    
Precipitation  
Precipitation T in 0.18 in 0.54 in (2006)
Month to date precipitation 1.97 1.81  
Year to date precipitation 42.10 38.36  
Snow  
Snow 0.00 in - - ()
Month to date snowfall 0.0  
Since 1 July snowfall 0.0  
Since 1 September snowfall 0.0  
Snow Depth 0.00 in    
Sea Level Pressure  
Sea Level Pressure 30.02 in    
Wind  
Wind Speed 7 mph (ENE)    
Max Wind Speed 18 mph    
Max Gust Speed 22 mph    
Visibility 10 miles    
Events Rain    
T = Trace of Precipitation, MM = Missing Value Source: NWS Daily Summary

Daily Weather History Graph

Daily Weather History Graph

Search for Another Location

Airport:

Trip Planner

Search our weather history database for the weather conditions in past years. The results will help you decide how hot, cold, wet, or windy it might be!

Date:

Astronomy

Oct. 10, 2012 Rise Set
Actual Time 7:20 AM EDT 7:01 PM EDT
Civil Twilight 6:57 AM EDT 7:24 PM EDT
Nautical Twilight 6:30 AM EDT 7:50 PM EDT
Astronomical Twilight 6:04 AM EDT 8:17 PM EDT
Moon 2:26 AM EDT (10/10) 3:35 PM EDT (10/10)
Length of Visible Light 12h 27m
Length of Day
11h 41m
Waning Crescent, 27% of the Moon is Illuminated
Oct 10
Waning Crescent
Oct 15
New
Oct 21
First Quarter
Oct 29
Full
Nov 6
Last Quarter

Hourly Weather History & Observations

Time (EDT) Temp. Heat Index Dew Point Humidity Pressure Visibility Wind Dir Wind Speed Gust Speed Precip Events Conditions
12:10 AM 78.8 °F - 75.2 °F 89% 30.02 in 6.0 mi NNE 8.1 mph - 0.05 in Rain Rain
12:53 AM 80.1 °F 85.8 °F 77.0 °F 90% 30.01 in 10.0 mi NE 3.5 mph - 0.05 in   Partly Cloudy
1:53 AM 81.0 °F 88.6 °F 78.1 °F 91% 30.00 in 10.0 mi East 4.6 mph - N/A   Clear
2:53 AM 79.0 °F - 75.9 °F 90% 29.99 in 10.0 mi ENE 3.5 mph - N/A   Clear
3:53 AM 77.0 °F - 75.9 °F 96% 29.98 in 10.0 mi Calm Calm - N/A   Clear
4:53 AM 78.1 °F - 77.0 °F 96% 29.98 in 10.0 mi Calm Calm - N/A   Clear
5:53 AM 80.1 °F 86.4 °F 78.1 °F 94% 29.99 in 10.0 mi ENE 4.6 mph - N/A   Clear
6:53 AM 80.1 °F 85.8 °F 77.0 °F 90% 30.01 in 10.0 mi ENE 3.5 mph - N/A   Clear
7:18 AM 80.6 °F 88.1 °F 78.8 °F 94% 30.01 in 10.0 mi NE 8.1 mph - N/A   Mostly Cloudy
7:28 AM 80.6 °F 88.1 °F 78.8 °F 94% 30.01 in 10.0 mi NE 8.1 mph - N/A   Mostly Cloudy
7:53 AM 81.0 °F 88.6 °F 78.1 °F 91% 30.02 in 10.0 mi ENE 6.9 mph - N/A   Partly Cloudy
8:53 AM 82.9 °F 92.8 °F 78.1 °F 85% 30.04 in 10.0 mi NNE 9.2 mph - N/A   Partly Cloudy
9:53 AM 84.9 °F 97.5 °F 79.0 °F 82% 30.04 in 10.0 mi NE 9.2 mph - N/A   Partly Cloudy
10:53 AM 84.9 °F 95.3 °F 77.0 °F 77% 30.05 in 10.0 mi ENE 9.2 mph - N/A   Clear
11:53 AM 86.0 °F 96.9 °F 77.0 °F 74% 30.06 in 10.0 mi NE 9.2 mph - N/A   Clear
12:53 PM 88.0 °F 97.5 °F 75.0 °F 65% 30.05 in 10.0 mi ENE 10.4 mph - N/A   Clear
1:53 PM 88.0 °F 97.5 °F 75.0 °F 65% 30.03 in 10.0 mi NE 8.1 mph - N/A   Clear
2:53 PM 88.0 °F 98.5 °F 75.9 °F 67% 30.00 in 10.0 mi East 6.9 mph - N/A   Partly Cloudy
3:53 PM 88.0 °F 96.5 °F 73.9 °F 63% 29.98 in 10.0 mi NE 6.9 mph - N/A   Clear
4:53 PM 82.9 °F 89.4 °F 73.9 °F 74% 29.98 in 10.0 mi NNE 10.4 mph - N/A   Mostly Cloudy
5:02 PM 82.4 °F 88.2 °F 73.4 °F 74% 29.98 in 10.0 mi NNE 10.4 mph 21.9 mph N/A   Overcast
5:53 PM 82.9 °F 88.8 °F 73.0 °F 72% 29.99 in 10.0 mi ENE 8.1 mph - 0.00 in   Mostly Cloudy
6:53 PM 82.9 °F 90.8 °F 75.9 °F 79% 30.01 in 10.0 mi East 6.9 mph - N/A   Scattered Clouds
7:53 PM 82.9 °F 88.8 °F 73.0 °F 72% 30.01 in 10.0 mi East 4.6 mph - N/A   Clear
8:53 PM 82.9 °F 90.8 °F 75.9 °F 79% 30.01 in 10.0 mi East 5.8 mph - N/A   Clear
9:53 PM 84.0 °F 92.6 °F 75.9 °F 76% 30.04 in 10.0 mi East 8.1 mph - N/A   Partly Cloudy
10:09 PM 84.2 °F 92.3 °F 75.2 °F 74% 30.04 in 10.0 mi NE 13.8 mph - N/A   Mostly Cloudy
10:23 PM 84.2 °F 94.1 °F 77.0 °F 79% 30.04 in 10.0 mi ENE 12.7 mph - N/A   Scattered Clouds
10:53 PM 82.9 °F 90.8 °F 75.9 °F 79% 30.05 in 10.0 mi ENE 9.2 mph - N/A   Partly Cloudy
11:53 PM 82.9 °F 90.2 °F 75.0 °F 77% 30.04 in 10.0 mi ENE 8.1 mph - N/A   Partly Cloudy